,,,PA_Meas_PMT16A,,PR_Meas_QMR101_102,,RH_Meas_QMH101,,SR_Meas_QMS101,,TA_Meas_QMH101,,GenWind,,GenWind,
date,time,status,PA,status,PR,status,RH,status,SR,status,TA,status,DirAvg,status,SpdAvg,
2012-03-24, 00:00:04,VALID,1001.45,VALID,0,VALID,92.2726,VALID,0,VALID,24.716,VALID,16,VALID,1.37109,
2012-03-24, 00:01:04,VALID,1001.39,VALID,0,VALID,92.2726,VALID,0,VALID,24.6965,VALID,16,VALID,1.25156,
2012-03-24, 00:02:04,VALID,1001.38,VALID,0,VALID,92.3031,VALID,0,VALID,24.638,VALID,21,VALID,1.34453,
2012-03-24, 00:03:04,VALID,1001.4,VALID,0,VALID,92.4176,VALID,0,VALID,24.6184,VALID,21,VALID,1.3293,
2012-03-24, 00:04:04,VALID,1001.38,VALID,0,VALID,92.5244,VALID,0,VALID,24.5989,VALID,21,VALID,1.32773,
2012-03-24, 00:05:04,VALID,1001.33,VALID,0,VALID,92.5778,VALID,0,VALID,24.5599,VALID,21,VALID,1.20039,
2012-03-24, 00:06:04,VALID,1001.36,VALID,0,VALID,92.6388,VALID,0,VALID,24.5599,VALID,20,VALID,1.1543,
2012-03-24, 00:07:04,VALID,1001.36,VALID,0,VALID,92.6236,VALID,0,VALID,24.5209,VALID,28,VALID,0.912891,
2012-03-24, 00:08:04,VALID,1001.34,VALID,0,VALID,92.6312,VALID,0,VALID,24.5209,VALID,32,VALID,0.891797,
2012-03-24, 00:09:04,VALID,1001.33,VALID,0,VALID,92.6846,VALID,0,VALID,24.5209,VALID,32,VALID,1.03164,
2012-03-24, 00:10:04,VALID,1001.33,VALID,0,VALID,92.6999,VALID,0,VALID,24.5013,VALID,32,VALID,0.814453,
2012-03-24, 00:11:04,VALID,1001.34,VALID,0,VALID,92.6846,VALID,0,VALID,24.5013,VALID,32,VALID,0.766016,
2012-03-24, 00:12:04,VALID,1001.33,VALID,0,VALID,92.6923,VALID,0,VALID,24.4818,VALID,32,VALID,0.697656,
2012-03-24, 00:13:04,VALID,1001.31,VALID,0,VALID,92.6999,VALID,0,VALID,24.4818,VALID,32,VALID,0.750391,
2012-03-24, 00:14:04,VALID,1001.32,VALID,0,VALID,92.6694,VALID,0,VALID,24.4818,VALID,32,VALID,0.878906,
2012-03-24, 00:15:04,VALID,1001.32,VALID,0,VALID,92.5778,VALID,0,VALID,24.4818,VALID,32,VALID,0.924219,
2012-03-24, 00:16:04,VALID,1001.27,VALID,0,VALID,92.5473,VALID,0,VALID,24.4818,VALID,32,VALID,0.753906,
2012-03-24, 00:17:04,VALID,1001.29,VALID,0,VALID,92.4786,VALID,0,VALID,24.4623,VALID,32,VALID,0.753906,
2012-03-24, 00:18:04,VALID,1001.23,VALID,0,VALID,92.3718,VALID,0,VALID,24.4428,VALID,32,VALID,0.733984,
2012-03-24, 00:19:04,VALID,1001.24,VALID,0,VALID,92.2955,VALID,0,VALID,24.4428,VALID,32,VALID,0.569141,
2012-03-24, 00:20:04,VALID,1001.2,VALID,0,VALID,92.265,VALID,0,VALID,24.4428,VALID,32,VALID,0.473828,
2012-03-24, 00:21:04,VALID,1001.19,VALID,0,VALID,92.2803,VALID,0,VALID,24.4214,VALID,32,VALID,0.620313,
2012-03-24, 00:22:04,VALID,1001.16,VALID,0,VALID,92.2955,VALID,0,VALID,24.4428,VALID,39,VALID,0.733203,
2012-03-24, 00:23:04,VALID,1001.13,VALID,0,VALID,92.3108,VALID,0,VALID,24.4428,VALID,87,VALID,0.794922,
2012-03-24, 00:24:04,VALID,1001.11,VALID,0,VALID,92.265,VALID,0,VALID,24.4019,VALID,87,VALID,0.819531,
2012-03-24, 00:25:04,VALID,1001.08,VALID,0,VALID,92.2574,VALID,0,VALID,24.3824,VALID,91,VALID,0.791016,
2012-03-24, 00:26:04,VALID,1001.07,VALID,0,VALID,92.2421,VALID,0,VALID,24.4037,VALID,91,VALID,0.641797,
2012-03-24, 00:27:04,VALID,1001.06,VALID,0,VALID,92.2421,VALID,0,VALID,24.3842,VALID,91,VALID,0.487109,
2012-03-24, 00:28:04,VALID,1001.04,VALID,0,VALID,92.2803,VALID,0,VALID,24.4056,VALID,91,VALID,0.496875,
2012-03-24, 00:29:04,VALID,1001.04,VALID,0,VALID,92.3489,VALID,0,VALID,24.4037,VALID,91,VALID,0.466797,
2012-03-24, 00:30:04,VALID,1001.05,VALID,0,VALID,92.4176,VALID,0,VALID,24.4037,VALID,91,VALID,0.619922,
2012-03-24, 00:31:04,VALID,1001.02,VALID,0,VALID,92.4481,VALID,0,VALID,24.4037,VALID,91,VALID,0.779688,
2012-03-24, 00:32:04,VALID,1001.05,VALID,0,VALID,92.4786,VALID,0,VALID,24.4037,VALID,100,VALID,0.600391,
2012-03-24, 00:33:04,VALID,1001.05,VALID,0,VALID,92.4939,VALID,0,VALID,24.4037,VALID,100,VALID,0.777344,
2012-03-24, 00:34:04,VALID,1001.06,VALID,0,VALID,92.5473,VALID,0,VALID,24.4233,VALID,100,VALID,0.660156,
2012-03-24, 00:35:04,VALID,1001.03,VALID,0,VALID,92.616,VALID,0,VALID,24.4233,VALID,100,VALID,0.721484,
2012-03-24, 00:36:04,VALID,1001.01,VALID,0,VALID,92.6388,VALID,0,VALID,24.4428,VALID,93,VALID,0.499219,
2012-03-24, 00:37:04,VALID,1001.01,VALID,0,VALID,92.6617,VALID,0,VALID,24.4428,VALID,93,VALID,0.920703,
2012-03-24, 00:38:04,VALID,1001,VALID,0,VALID,92.6541,VALID,0,VALID,24.4642,VALID,90,VALID,0.859375,
2012-03-24, 00:39:04,VALID,1001.01,VALID,0,VALID,92.677,VALID,0,VALID,24.4428,VALID,90,VALID,0.90625,
2012-03-24, 00:40:04,VALID,1001.01,VALID,0,VALID,92.677,VALID,0,VALID,24.4428,VALID,90,VALID,0.921484,
2012-03-24, 00:41:04,VALID,1000.99,VALID,0,VALID,92.6923,VALID,0,VALID,24.4428,VALID,90,VALID,0.634375,
2012-03-24, 00:42:04,VALID,1001,VALID,0,VALID,92.6617,VALID,0,VALID,24.4214,VALID,90,VALID,0.776172,
2012-03-24, 00:43:04,VALID,1001.03,VALID,0,VALID,92.6541,VALID,0,VALID,24.4233,VALID,90,VALID,0.582812,
2012-03-24, 00:44:04,VALID,1001,VALID,0,VALID,92.6541,VALID,0,VALID,24.4233,VALID,90,VALID,0.508984,
2012-03-24, 00:45:04,VALID,1000.99,VALID,0,VALID,92.6617,VALID,0,VALID,24.4233,VALID,90,VALID,0.548437,
2012-03-24, 00:46:04,VALID,1001.03,VALID,0,VALID,92.6617,VALID,0,VALID,24.4233,VALID,90,VALID,0.60625,
2012-03-24, 00:47:04,VALID,1000.99,VALID,0,VALID,92.6694,VALID,0,VALID,24.4037,VALID,90,VALID,0.663672,
2012-03-24, 00:48:04,VALID,1000.99,VALID,0,VALID,92.6617,VALID,0,VALID,24.4037,VALID,90,VALID,0.475781,
2012-03-24, 00:49:04,VALID,1000.96,VALID,0,VALID,92.6999,VALID,0,VALID,24.3824,VALID,90,VALID,0.378516,
2012-03-24, 00:50:04,VALID,1000.96,VALID,0,VALID,92.7151,VALID,0,VALID,24.3842,VALID,90,VALID,0.396875,
2012-03-24, 00:51:04,VALID,1000.92,VALID,0,VALID,92.7228,VALID,0,VALID,24.3842,VALID,90,VALID,0.303906,
2012-03-24, 00:52:04,VALID,1000.92,VALID,0,VALID,92.738,VALID,0,VALID,24.3842,VALID,90,VALID,0.397266,
2012-03-24, 00:53:04,VALID,1000.9,VALID,0,VALID,92.7609,VALID,0,VALID,24.3842,VALID,90,VALID,0.351172,
2012-03-24, 00:54:04,VALID,1000.87,VALID,0,VALID,92.7685,VALID,0,VALID,24.3842,VALID,90,VALID,0.544922,
2012-03-24, 00:55:04,VALID,1000.87,VALID,0,VALID,92.7762,VALID,0,VALID,24.3842,VALID,90,VALID,0.541406,
2012-03-24, 00:56:04,VALID,1000.83,VALID,0,VALID,92.8143,VALID,0,VALID,24.3842,VALID,90,VALID,0.547266,
2012-03-24, 00:57:04,VALID,1000.86,VALID,0,VALID,92.8372,VALID,0,VALID,24.3842,VALID,90,VALID,0.833203,
2012-03-24, 00:58:04,VALID,1000.82,VALID,0,VALID,92.8525,VALID,0,VALID,24.3842,VALID,90,VALID,0.734375,
2012-03-24, 00:59:04,VALID,1000.83,VALID,0,VALID,92.8143,VALID,0,VALID,24.3629,VALID,91,VALID,0.690234,
2012-03-24, 01:00:04,VALID,1000.84,VALID,0,VALID,92.738,VALID,0,VALID,24.3842,VALID,91,VALID,0.530078,
2012-03-24, 01:01:04,VALID,1000.83,VALID,0,VALID,92.7228,VALID,0,VALID,24.3842,VALID,95,VALID,0.469531,
2012-03-24, 01:02:04,VALID,1000.83,VALID,0,VALID,92.7228,VALID,0,VALID,24.3647,VALID,95,VALID,0.309766,
2012-03-24, 01:03:04,VALID,1000.82,VALID,0,VALID,92.6617,VALID,0,VALID,24.3842,VALID,101,VALID,0.663672,
2012-03-24, 01:04:04,VALID,1000.78,VALID,0,VALID,92.6846,VALID,0,VALID,24.3647,VALID,120,VALID,0.652344,
2012-03-24, 01:05:04,VALID,1000.78,VALID,0,VALID,92.6465,VALID,0,VALID,24.3647,VALID,120,VALID,0.817187,
2012-03-24, 01:06:04,VALID,1000.81,VALID,0,VALID,92.6388,VALID,0,VALID,24.3842,VALID,147,VALID,0.725781,
2012-03-24, 01:07:04,VALID,1000.82,VALID,0,VALID,92.6007,VALID,0,VALID,24.3842,VALID,147,VALID,0.623438,
2012-03-24, 01:08:04,VALID,1000.83,VALID,0,VALID,92.4481,VALID,0,VALID,24.3842,VALID,147,VALID,0.742578,
2012-03-24, 01:09:04,VALID,1000.82,VALID,0,VALID,92.3337,VALID,0,VALID,24.3647,VALID,147,VALID,0.747656,
2012-03-24, 01:10:04,VALID,1000.84,VALID,0,VALID,92.2879,VALID,0,VALID,24.3842,VALID,147,VALID,0.640625,
2012-03-24, 01:11:04,VALID,1000.82,VALID,0,VALID,92.1963,VALID,0,VALID,24.3647,VALID,147,VALID,0.405078,
2012-03-24, 01:12:04,VALID,1000.8,VALID,0,VALID,92.1124,VALID,0,VALID,24.3647,VALID,146,VALID,0.704687,
2012-03-24, 01:13:04,VALID,1000.79,VALID,0,VALID,92.0743,VALID,0,VALID,24.3452,VALID,146,VALID,0.626953,
2012-03-24, 01:14:04,VALID,1000.8,VALID,0,VALID,92.0514,VALID,0,VALID,24.3452,VALID,146,VALID,0.548828,
2012-03-24, 01:15:04,VALID,1000.78,VALID,0,VALID,92.059,VALID,0,VALID,24.3257,VALID,146,VALID,0.612109,
2012-03-24, 01:16:04,VALID,1000.77,VALID,0,VALID,92.1124,VALID,0,VALID,24.3257,VALID,146,VALID,0.429688,
2012-03-24, 01:17:04,VALID,1000.72,VALID,0,VALID,92.1353,VALID,0,VALID,24.3257,VALID,129,VALID,0.592188,
2012-03-24, 01:18:04,VALID,1000.73,VALID,0,VALID,92.1429,VALID,0,VALID,24.3257,VALID,129,VALID,0.510156,
2012-03-24, 01:19:04,VALID,1000.68,VALID,0,VALID,92.1277,VALID,0,VALID,24.3062,VALID,129,VALID,0.213672,
2012-03-24, 01:20:04,VALID,1000.67,VALID,0,VALID,92.1353,VALID,0,VALID,24.3062,VALID,129,VALID,0.208984,
2012-03-24, 01:21:04,VALID,1000.68,VALID,0,VALID,92.1429,VALID,0,VALID,24.2866,VALID,129,VALID,0.341406,
2012-03-24, 01:22:04,VALID,1000.63,VALID,0,VALID,92.2497,VALID,0,VALID,24.2671,VALID,129,VALID,0.434375,
2012-03-24, 01:23:04,VALID,1000.61,VALID,0,VALID,92.2879,VALID,0,VALID,24.2263,VALID,129,VALID,0.514063,
2012-03-24, 01:24:04,VALID,1000.63,VALID,0,VALID,92.4405,VALID,0,VALID,24.2476,VALID,129,VALID,0.519531,
2012-03-24, 01:25:04,VALID,1000.58,VALID,0,VALID,92.5778,VALID,0,VALID,24.2476,VALID,129,VALID,0.599219,
2012-03-24, 01:26:04,VALID,1000.54,VALID,0,VALID,92.6236,VALID,0,VALID,24.2476,VALID,129,VALID,0.422656,
2012-03-24, 01:27:04,VALID,1000.55,VALID,0,VALID,92.6007,VALID,0,VALID,24.2476,VALID,121,VALID,0.841406,
2012-03-24, 01:28:04,VALID,1000.52,VALID,0,VALID,92.677,VALID,0,VALID,24.2476,VALID,97,VALID,0.672656,
2012-03-24, 01:29:04,VALID,1000.5,VALID,0,VALID,92.6923,VALID,0,VALID,24.2476,VALID,93,VALID,0.711719,
2012-03-24, 01:30:04,VALID,1000.53,VALID,0,VALID,92.6465,VALID,0,VALID,24.2476,VALID,93,VALID,0.585938,
2012-03-24, 01:31:04,VALID,1000.51,VALID,0,VALID,92.5931,VALID,0,VALID,24.1872,VALID,93,VALID,0.510547,
2012-03-24, 01:32:04,VALID,1000.51,VALID,0,VALID,92.5702,VALID,0,VALID,24.2086,VALID,93,VALID,0.434766,
2012-03-24, 01:33:04,VALID,1000.5,VALID,0,VALID,92.5473,VALID,0,VALID,24.1891,VALID,93,VALID,0.512891,
2012-03-24, 01:34:04,VALID,1000.53,VALID,0,VALID,92.5626,VALID,0,VALID,24.1891,VALID,93,VALID,0.461719,
2012-03-24, 01:35:04,VALID,1000.54,VALID,0,VALID,92.5626,VALID,0,VALID,24.1482,VALID,93,VALID,0.504687,
2012-03-24, 01:36:04,VALID,1000.52,VALID,0,VALID,92.5931,VALID,0,VALID,24.15,VALID,93,VALID,0.483203,
2012-03-24, 01:37:04,VALID,1000.51,VALID,0,VALID,92.616,VALID,0,VALID,24.15,VALID,79,VALID,0.752734,
2012-03-24, 01:38:04,VALID,1000.5,VALID,0,VALID,92.5854,VALID,0,VALID,24.15,VALID,73,VALID,0.533203,
2012-03-24, 01:39:04,VALID,1000.48,VALID,0,VALID,92.5168,VALID,0,VALID,24.1305,VALID,73,VALID,0.376953,
2012-03-24, 01:40:04,VALID,1000.48,VALID,0,VALID,92.532,VALID,0,VALID,24.111,VALID,73,VALID,0.597266,
2012-03-24, 01:41:04,VALID,1000.48,VALID,0,VALID,92.6312,VALID,0,VALID,24.0915,VALID,73,VALID,0.572266,
2012-03-24, 01:42:04,VALID,1000.41,VALID,0,VALID,92.7075,VALID,0,VALID,24.0915,VALID,73,VALID,0.564844,
2012-03-24, 01:43:04,VALID,1000.44,VALID,0,VALID,92.8067,VALID,0,VALID,24.0506,VALID,73,VALID,0.569141,
2012-03-24, 01:44:04,VALID,1000.41,VALID,0,VALID,92.822,VALID,0,VALID,24.072,VALID,73,VALID,0.509766,
2012-03-24, 01:45:04,VALID,1000.37,VALID,0,VALID,92.8296,VALID,0,VALID,24.0525,VALID,73,VALID,0.666406,
2012-03-24, 01:46:04,VALID,1000.38,VALID,0,VALID,92.8448,VALID,0,VALID,24.0525,VALID,73,VALID,0.945703,
2012-03-24, 01:47:04,VALID,1000.36,VALID,0,VALID,92.9211,VALID,0,VALID,24.0525,VALID,73,VALID,0.620703,
2012-03-24, 01:48:04,VALID,1000.3,VALID,0,VALID,92.8983,VALID,0,VALID,24.0525,VALID,73,VALID,0.553516,
2012-03-24, 01:49:04,VALID,1000.3,VALID,0,VALID,92.8601,VALID,0,VALID,24.0525,VALID,73,VALID,0.764453,
2012-03-24, 01:50:04,VALID,1000.28,VALID,0,VALID,92.7914,VALID,0,VALID,24.0525,VALID,73,VALID,0.453516,
2012-03-24, 01:51:04,VALID,1000.28,VALID,0,VALID,92.8143,VALID,0,VALID,24.0329,VALID,73,VALID,0.318359,
2012-03-24, 01:52:04,VALID,1000.26,VALID,0,VALID,92.7838,VALID,0,VALID,24.0329,VALID,73,VALID,0.257422,
2012-03-24, 01:53:04,VALID,1000.26,VALID,0,VALID,92.7685,VALID,0,VALID,23.9921,VALID,73,VALID,0.00117188,
2012-03-24, 01:54:04,VALID,1000.21,VALID,0,VALID,92.7609,VALID,0,VALID,23.9939,VALID,73,VALID,0,
2012-03-24, 01:55:04,VALID,1000.22,VALID,0,VALID,92.7457,VALID,0,VALID,23.9744,VALID,73,VALID,0,
2012-03-24, 01:56:04,VALID,1000.21,VALID,0,VALID,92.7075,VALID,0,VALID,23.9336,VALID,73,VALID,0,
2012-03-24, 01:57:04,VALID,1000.17,VALID,0,VALID,92.7075,VALID,0,VALID,23.9354,VALID,73,VALID,0,
2012-03-24, 01:58:04,VALID,1000.19,VALID,0,VALID,92.738,VALID,0,VALID,23.9159,VALID,73,VALID,0,
2012-03-24, 01:59:04,VALID,1000.18,VALID,0,VALID,92.822,VALID,0,VALID,23.9159,VALID,73,VALID,0,
2012-03-24, 02:00:04,VALID,1000.16,VALID,0,VALID,92.8601,VALID,0,VALID,23.8963,VALID,73,VALID,0,
2012-03-24, 02:01:04,VALID,1000.2,VALID,0,VALID,92.9517,VALID,0,VALID,23.9159,VALID,73,VALID,0,
2012-03-24, 02:02:04,VALID,1000.21,VALID,0,VALID,93.0508,VALID,0,VALID,23.8963,VALID,73,VALID,0,
2012-03-24, 02:03:04,VALID,1000.21,VALID,0,VALID,93.0585,VALID,0,VALID,23.8963,VALID,118,VALID,0.89375,
2012-03-24, 02:04:04,VALID,1000.2,VALID,0,VALID,93.1348,VALID,0,VALID,23.9159,VALID,136,VALID,0.476953,
2012-03-24, 02:05:04,VALID,1000.16,VALID,0,VALID,93.1195,VALID,0,VALID,23.914,VALID,136,VALID,0.398047,
2012-03-24, 02:06:04,VALID,1000.19,VALID,0,VALID,93.0966,VALID,0,VALID,23.9549,VALID,126,VALID,0.602734,
2012-03-24, 02:07:04,VALID,1000.15,VALID,0,VALID,93.0203,VALID,0,VALID,23.9354,VALID,126,VALID,0.335938,
2012-03-24, 02:08:04,VALID,1000.19,VALID,0,VALID,93.0051,VALID,0,VALID,23.9549,VALID,126,VALID,0.659375,
2012-03-24, 02:09:04,VALID,1000.18,VALID,0,VALID,92.9364,VALID,0,VALID,23.9549,VALID,126,VALID,0.321484,
2012-03-24, 02:10:04,VALID,1000.18,VALID,0,VALID,92.9364,VALID,0,VALID,23.9336,VALID,126,VALID,0.553125,
2012-03-24, 02:11:04,VALID,1000.16,VALID,0,VALID,92.9669,VALID,0,VALID,23.9531,VALID,126,VALID,0.484766,
2012-03-24, 02:12:04,VALID,1000.14,VALID,0,VALID,92.9822,VALID,0,VALID,23.9744,VALID,110,VALID,0.733203,
2012-03-24, 02:13:04,VALID,1000.11,VALID,0,VALID,92.9745,VALID,0,VALID,23.9939,VALID,110,VALID,0.381641,
2012-03-24, 02:14:04,VALID,1000.13,VALID,0,VALID,92.944,VALID,0,VALID,23.9726,VALID,110,VALID,0.208203,
2012-03-24, 02:15:04,VALID,1000.13,VALID,0,VALID,92.9364,VALID,0,VALID,23.9726,VALID,110,VALID,0.0652344,
2012-03-24, 02:16:04,VALID,1000.1,VALID,0,VALID,92.9517,VALID,0,VALID,23.9531,VALID,110,VALID,0.335156,
2012-03-24, 02:17:04,VALID,1000.09,VALID,0,VALID,92.9669,VALID,0,VALID,23.9744,VALID,110,VALID,0.078125,
2012-03-24, 02:18:04,VALID,1000.1,VALID,0,VALID,92.9669,VALID,0,VALID,23.9744,VALID,110,VALID,0.0015625,
2012-03-24, 02:19:04,VALID,1000.08,VALID,0,VALID,92.9669,VALID,0,VALID,23.9549,VALID,110,VALID,0.202344,
2012-03-24, 02:20:04,VALID,1000.09,VALID,0,VALID,93.028,VALID,0,VALID,23.9549,VALID,110,VALID,0.3125,
2012-03-24, 02:21:04,VALID,1000.11,VALID,0,VALID,93.0356,VALID,0,VALID,23.9336,VALID,110,VALID,0.242578,
2012-03-24, 02:22:04,VALID,1000.11,VALID,0,VALID,93.028,VALID,0,VALID,23.9336,VALID,110,VALID,0.39375,
2012-03-24, 02:23:04,VALID,1000.14,VALID,0,VALID,93.0203,VALID,0,VALID,23.914,VALID,110,VALID,0.263672,
2012-03-24, 02:24:04,VALID,1000.14,VALID,0,VALID,93.0051,VALID,0,VALID,23.914,VALID,110,VALID,0.450391,
2012-03-24, 02:25:04,VALID,1000.15,VALID,0,VALID,93.0356,VALID,0,VALID,23.9159,VALID,110,VALID,0.447266,
2012-03-24, 02:26:04,VALID,1000.17,VALID,0,VALID,93.028,VALID,0,VALID,23.8963,VALID,110,VALID,0.447656,
2012-03-24, 02:27:04,VALID,1000.17,VALID,0,VALID,93.089,VALID,0,VALID,23.8963,VALID,110,VALID,0.210547,
2012-03-24, 02:28:04,VALID,1000.19,VALID,0,VALID,93.1577,VALID,0,VALID,23.8963,VALID,110,VALID,0.102344,
2012-03-24, 02:29:04,VALID,1000.17,VALID,0,VALID,93.1271,VALID,0,VALID,23.8963,VALID,110,VALID,0,
2012-03-24, 02:30:04,VALID,1000.16,VALID,0,VALID,93.1271,VALID,0,VALID,23.8768,VALID,110,VALID,0.160156,
2012-03-24, 02:31:04,VALID,1000.2,VALID,0,VALID,93.1043,VALID,0,VALID,23.8768,VALID,110,VALID,0.453125,
2012-03-24, 02:32:04,VALID,1000.18,VALID,0,VALID,93.1653,VALID,0,VALID,23.8573,VALID,110,VALID,0.530859,
2012-03-24, 02:33:04,VALID,1000.23,VALID,0,VALID,93.2492,VALID,0,VALID,23.8573,VALID,110,VALID,0.427344,
2012-03-24, 02:34:04,VALID,1000.23,VALID,0,VALID,93.3179,VALID,0,VALID,23.8768,VALID,110,VALID,0.28125,
2012-03-24, 02:35:04,VALID,1000.25,VALID,0,VALID,93.356,VALID,0,VALID,23.8573,VALID,110,VALID,0.221875,
2012-03-24, 02:36:04,VALID,1000.29,VALID,0,VALID,93.3866,VALID,0,VALID,23.8768,VALID,110,VALID,0.151172,
2012-03-24, 02:37:04,VALID,1000.27,VALID,0,VALID,93.4094,VALID,0,VALID,23.8555,VALID,110,VALID,0.0347656,
2012-03-24, 02:38:04,VALID,1000.29,VALID,0,VALID,93.3942,VALID,0,VALID,23.8768,VALID,110,VALID,0.460156,
2012-03-24, 02:39:04,VALID,1000.3,VALID,0,VALID,93.3637,VALID,0,VALID,23.8768,VALID,110,VALID,0.107422,
2012-03-24, 02:40:04,VALID,1000.31,VALID,0,VALID,93.3484,VALID,0,VALID,23.8555,VALID,110,VALID,0,
2012-03-24, 02:41:04,VALID,1000.28,VALID,0,VALID,93.2874,VALID,0,VALID,23.8768,VALID,110,VALID,0,
2012-03-24, 02:42:04,VALID,1000.3,VALID,0,VALID,93.2797,VALID,0,VALID,23.8573,VALID,110,VALID,0,
2012-03-24, 02:43:04,VALID,1000.27,VALID,0,VALID,93.2645,VALID,0,VALID,23.8378,VALID,110,VALID,0,
2012-03-24, 02:44:04,VALID,1000.24,VALID,0,VALID,93.2568,VALID,0,VALID,23.8378,VALID,110,VALID,0,
2012-03-24, 02:45:04,VALID,1000.25,VALID,0,VALID,93.2187,VALID,0,VALID,23.8183,VALID,110,VALID,0,
2012-03-24, 02:46:04,VALID,1000.24,VALID,0,VALID,93.1958,VALID,0,VALID,23.7988,VALID,110,VALID,0,
2012-03-24, 02:47:04,VALID,1000.24,VALID,0,VALID,93.1882,VALID,0,VALID,23.7793,VALID,110,VALID,0,
2012-03-24, 02:48:04,VALID,1000.26,VALID,0,VALID,93.1729,VALID,0,VALID,23.7793,VALID,110,VALID,0,
2012-03-24, 02:49:04,VALID,1000.28,VALID,0,VALID,93.2111,VALID,0,VALID,23.7597,VALID,110,VALID,0,
2012-03-24, 02:50:04,VALID,1000.25,VALID,0,VALID,93.2492,VALID,0,VALID,23.7384,VALID,110,VALID,0,
2012-03-24, 02:51:04,VALID,1000.28,VALID,0,VALID,93.295,VALID,0,VALID,23.7402,VALID,110,VALID,0,
2012-03-24, 02:52:04,VALID,1000.28,VALID,0,VALID,93.3331,VALID,0,VALID,23.7207,VALID,110,VALID,0.0078125,
2012-03-24, 02:53:04,VALID,1000.31,VALID,0,VALID,93.295,VALID,0,VALID,23.7207,VALID,110,VALID,0.625,
2012-03-24, 02:54:04,VALID,1000.31,VALID,0,VALID,93.2492,VALID,0,VALID,23.7012,VALID,110,VALID,0.728516,
2012-03-24, 02:55:04,VALID,1000.32,VALID,0,VALID,93.1805,VALID,0,VALID,23.6604,VALID,110,VALID,0.803516,
2012-03-24, 02:56:04,VALID,1000.34,VALID,0,VALID,93.1043,VALID,0,VALID,23.6817,VALID,110,VALID,0.581641,
2012-03-24, 02:57:04,VALID,1000.36,VALID,0,VALID,93.0814,VALID,0,VALID,23.6604,VALID,110,VALID,0.445313,
2012-03-24, 02:58:04,VALID,1000.4,VALID,0,VALID,92.9898,VALID,0,VALID,23.6622,VALID,110,VALID,0.370703,
2012-03-24, 02:59:04,VALID,1000.39,VALID,0,VALID,92.9211,VALID,0,VALID,23.6409,VALID,110,VALID,0.502734,
2012-03-24, 03:00:04,VALID,1000.37,VALID,0,VALID,92.8525,VALID,0,VALID,23.6427,VALID,110,VALID,0.392969,
2012-03-24, 03:01:04,VALID,1000.33,VALID,0,VALID,92.8448,VALID,0,VALID,23.6427,VALID,110,VALID,0.438672,
2012-03-24, 03:02:04,VALID,1000.3,VALID,0,VALID,92.8143,VALID,0,VALID,23.6427,VALID,110,VALID,0.589844,
2012-03-24, 03:03:04,VALID,1000.28,VALID,0,VALID,92.944,VALID,0,VALID,23.6214,VALID,110,VALID,0.51875,
2012-03-24, 03:04:04,VALID,1000.24,VALID,0,VALID,92.9669,VALID,0,VALID,23.6214,VALID,109,VALID,0.710156,
2012-03-24, 03:05:04,VALID,1000.23,VALID,0,VALID,92.9898,VALID,0,VALID,23.6427,VALID,109,VALID,0.593359,
2012-03-24, 03:06:04,VALID,1000.23,VALID,0,VALID,93.0356,VALID,0,VALID,23.6427,VALID,109,VALID,0.635156,
2012-03-24, 03:07:04,VALID,1000.22,VALID,0,VALID,93.1119,VALID,0,VALID,23.6427,VALID,109,VALID,0.563281,
2012-03-24, 03:08:04,VALID,1000.23,VALID,0,VALID,93.1958,VALID,0,VALID,23.6409,VALID,109,VALID,0.466797,
2012-03-24, 03:09:04,VALID,1000.21,VALID,0,VALID,93.2568,VALID,0,VALID,23.6817,VALID,109,VALID,0.410937,
2012-03-24, 03:10:04,VALID,1000.24,VALID,0,VALID,93.2263,VALID,0.104696,VALID,23.7012,VALID,109,VALID,0.421094,
2012-03-24, 03:11:04,VALID,1000.31,VALID,0,VALID,93.2034,VALID,0,VALID,23.6799,VALID,109,VALID,0.274219,
2012-03-24, 03:12:04,VALID,1000.3,VALID,0,VALID,93.1805,VALID,0,VALID,23.7012,VALID,109,VALID,0.267578,
2012-03-24, 03:13:04,VALID,1000.31,VALID,0,VALID,93.15,VALID,0,VALID,23.6799,VALID,109,VALID,0,
2012-03-24, 03:14:04,VALID,1000.3,VALID,0,VALID,93.0814,VALID,0,VALID,23.6604,VALID,109,VALID,0,
2012-03-24, 03:15:04,VALID,1000.26,VALID,0,VALID,93.0356,VALID,0,VALID,23.6409,VALID,109,VALID,0,
2012-03-24, 03:16:04,VALID,1000.25,VALID,0,VALID,92.9669,VALID,0,VALID,23.6214,VALID,109,VALID,0,
2012-03-24, 03:17:04,VALID,1000.21,VALID,0,VALID,92.9288,VALID,0,VALID,23.6232,VALID,109,VALID,0,
2012-03-24, 03:18:04,VALID,1000.23,VALID,0,VALID,92.9288,VALID,0,VALID,23.5823,VALID,109,VALID,0,
2012-03-24, 03:19:04,VALID,1000.22,VALID,0,VALID,93.028,VALID,0,VALID,23.5841,VALID,109,VALID,0,
2012-03-24, 03:20:04,VALID,1000.24,VALID,0,VALID,93.2034,VALID,0,VALID,23.5823,VALID,109,VALID,0,
2012-03-24, 03:21:04,VALID,1000.23,VALID,0,VALID,93.3103,VALID,0,VALID,23.6036,VALID,109,VALID,0,
2012-03-24, 03:22:04,VALID,1000.24,VALID,0,VALID,93.3713,VALID,0.104696,VALID,23.6019,VALID,109,VALID,0,
2012-03-24, 03:23:04,VALID,1000.24,VALID,0,VALID,93.3637,VALID,0,VALID,23.6036,VALID,109,VALID,0,
2012-03-24, 03:24:04,VALID,1000.26,VALID,0,VALID,93.295,VALID,0,VALID,23.5823,VALID,109,VALID,0,
2012-03-24, 03:25:04,VALID,1000.25,VALID,0,VALID,93.2645,VALID,0,VALID,23.5841,VALID,109,VALID,0,
2012-03-24, 03:26:04,VALID,1000.25,VALID,0,VALID,93.2645,VALID,0,VALID,23.5841,VALID,109,VALID,0,
2012-03-24, 03:27:04,VALID,1000.32,VALID,0,VALID,93.2874,VALID,0,VALID,23.5646,VALID,109,VALID,0,
2012-03-24, 03:28:04,VALID,1000.35,VALID,0,VALID,93.3331,VALID,0,VALID,23.5646,VALID,109,VALID,0,
2012-03-24, 03:29:04,VALID,1000.35,VALID,0,VALID,93.356,VALID,0,VALID,23.5841,VALID,140,VALID,0.328906,
2012-03-24, 03:30:04,VALID,1000.36,VALID,0,VALID,93.3103,VALID,0.104696,VALID,23.5628,VALID,163,VALID,0.760156,
2012-03-24, 03:31:04,VALID,1000.37,VALID,0,VALID,93.1882,VALID,0,VALID,23.5646,VALID,162,VALID,0.705859,
2012-03-24, 03:32:04,VALID,1000.39,VALID,0,VALID,93.1119,VALID,0,VALID,23.5433,VALID,163,VALID,0.557422,
2012-03-24, 03:33:04,VALID,1000.41,VALID,0,VALID,92.9974,VALID,0,VALID,23.5451,VALID,162,VALID,0.350391,
2012-03-24, 03:34:04,VALID,1000.45,VALID,0,VALID,92.9211,VALID,0.104696,VALID,23.5451,VALID,162,VALID,0.084375,
2012-03-24, 03:35:04,VALID,1000.45,VALID,0,VALID,92.8525,VALID,0,VALID,23.5238,VALID,162,VALID,0.0734375,
2012-03-24, 03:36:04,VALID,1000.48,VALID,0,VALID,92.8143,VALID,0,VALID,23.5451,VALID,162,VALID,0.00351562,
2012-03-24, 03:37:04,VALID,1000.52,VALID,0,VALID,92.7609,VALID,0,VALID,23.5256,VALID,162,VALID,0,
2012-03-24, 03:38:04,VALID,1000.53,VALID,0,VALID,92.7533,VALID,0,VALID,23.5238,VALID,163,VALID,0,
2012-03-24, 03:39:04,VALID,1000.54,VALID,0,VALID,92.7685,VALID,0,VALID,23.5238,VALID,162,VALID,0,
2012-03-24, 03:40:04,VALID,1000.55,VALID,0,VALID,92.7151,VALID,0,VALID,23.5043,VALID,162,VALID,0.714844,
2012-03-24, 03:41:04,VALID,1000.54,VALID,0,VALID,92.677,VALID,0,VALID,23.5451,VALID,150,VALID,0.765625,
2012-03-24, 03:42:04,VALID,1000.56,VALID,0,VALID,92.7075,VALID,0,VALID,23.5646,VALID,150,VALID,0.867188,
2012-03-24, 03:43:04,VALID,1000.52,VALID,0,VALID,92.6236,VALID,0,VALID,23.6036,VALID,150,VALID,0.806641,
2012-03-24, 03:44:04,VALID,1000.53,VALID,0,VALID,92.5244,VALID,0,VALID,23.5823,VALID,150,VALID,0.811719,
2012-03-24, 03:45:04,VALID,1000.53,VALID,0,VALID,92.4176,VALID,0,VALID,23.6036,VALID,150,VALID,0.424219,
2012-03-24, 03:46:04,VALID,1000.56,VALID,0,VALID,92.326,VALID,0,VALID,23.5823,VALID,150,VALID,0.4125,
2012-03-24, 03:47:04,VALID,1000.55,VALID,0,VALID,92.3337,VALID,0.104696,VALID,23.6019,VALID,150,VALID,0.328125,